| time (UTC) | temp C | wind direction | speed KPH | gust KPH | rain 1hr cm | rain 24hr cm | rain mn cm | humidity % | barometer mb |
| 20260503213501 | 18 | 294 | 14.5 | 29.0 | 0.00 | 0.00 | 0.00 | 15 | 1003.7 |
| 20260503212959 | 19 | 299 | 14.5 | 25.7 | 0.00 | 0.00 | 0.00 | 15 | 1003.7 |
| 20260503212432 | 19 | 286 | 11.3 | 25.7 | 0.00 | 0.00 | 0.00 | 15 | 1003.8 |
| 20260503211915 | 19 | 324 | 11.3 | 27.4 | 0.00 | 0.00 | 0.00 | 16 | 1003.8 |
| 20260503211418 | 18 | 276 | 11.3 | 27.4 | 0.00 | 0.00 | 0.00 | 16 | 1003.9 |
| 20260503210850 | 19 | 321 | 9.7 | 24.1 | 0.00 | 0.00 | 0.00 | 15 | 1004.0 |
| 20260503210349 | 18 | 347 | 11.3 | 30.6 | 0.00 | 0.00 | 0.00 | 14 | 1004.0 |
| 20260503205824 | 18 | 261 | 14.5 | 33.8 | 0.00 | 0.00 | 0.00 | 16 | 1004.0 |
| 20260503205256 | 18 | 252 | 14.5 | 33.8 | 0.00 | 0.00 | 0.00 | 16 | 1004.0 |
| 20260503204754 | 18 | 316 | 12.9 | 29.0 | 0.00 | 0.00 | 0.00 | 15 | 1004.2 |
| 20260503204228 | 18 | 252 | 12.9 | 29.0 | 0.00 | 0.00 | 0.00 | 16 | 1004.3 |
| 20260503203702 | 18 | 266 | 14.5 | 29.0 | 0.00 | 0.00 | 0.00 | 16 | 1004.4 |
| 20260503203202 | 18 | 242 | 14.5 | 25.7 | 0.00 | 0.00 | 0.00 | 16 | 1004.2 |
| 20260503202636 | 18 | 279 | 14.5 | 35.4 | 0.00 | 0.00 | 0.00 | 14 | 1004.6 |
| 20260503202134 | 18 | 333 | 12.9 | 35.4 | 0.00 | 0.00 | 0.00 | 15 | 1004.7 |
| 20260503201611 | 18 | 215 | 9.7 | 29.0 | 0.00 | 0.00 | 0.00 | 14 | 1004.6 |
| 20260503201110 | 18 | 96 | 8.0 | 20.9 | 0.00 | 0.00 | 0.00 | 15 | 1004.6 |
| 20260503200843 | 18 | 231 | 9.7 | 22.5 | 0.00 | 0.00 | 0.00 | 15 | 1004.5 |
| 20260503200110 | 18 | 293 | 11.3 | 29.0 | 0.00 | 0.00 | 0.00 | 15 | 1004.7 |
| 20260503195611 | 18 | 45 | 14.5 | 29.0 | 0.00 | 0.00 | 0.00 | 15 | 1004.7 |
| 20260503195112 | 17 | 297 | 14.5 | 33.8 | 0.00 | 0.00 | 0.00 | 14 | 1004.8 |
| 20260503194823 | 18 | 230 | 11.3 | 33.8 | 0.00 | 0.00 | 0.00 | 13 | 1004.7 |
| 20260503194050 | 18 | 10 | 11.3 | 24.1 | 0.00 | 0.00 | 0.00 | 14 | 1004.9 |
| 20260503193552 | 17 | 321 | 12.9 | 32.2 | 0.00 | 0.00 | 0.00 | 14 | 1005.1 |
| 20260503193027 | 17 | 317 | 16.1 | 35.4 | 0.00 | 0.00 | 0.00 | 13 | 1005.2 |
| 20260503192519 | 17 | 268 | 14.5 | 35.4 | 0.00 | 0.00 | 0.00 | 13 | 1005.1 |
| 20260503191955 | 17 | 239 | 14.5 | 35.4 | 0.00 | 0.00 | 0.00 | 12 | 1005.2 |
| 20260503191458 | 17 | 260 | 14.5 | 32.2 | 0.00 | 0.00 | 0.00 | 11 | 1005.4 |
| 20260503191226 | 17 | 261 | 14.5 | 33.8 | 0.00 | 0.00 | 0.00 | 10 | 1005.3 |
| 20260503190457 | 17 | 249 | 17.7 | 33.8 | 0.00 | 0.00 | 0.00 | 10 | 1005.2 |
| 20260503185937 | 17 | 291 | 16.1 | 37.0 | 0.00 | 0.00 | 0.00 | 8 | 1005.4 |
| 20260503185912 | 17 | 275 | 12.9 | 33.8 | 0.00 | 0.00 | 0.00 | 9 | 1005.5 |
| 20260503185119 | 17 | 236 | 14.5 | 35.4 | 0.00 | 0.00 | 0.00 | 10 | 1005.5 |
| 20260503184350 | 17 | 335 | 16.1 | 35.4 | 0.00 | 0.00 | 0.00 | 11 | 1005.6 |
| 20260503183850 | 17 | 328 | 14.5 | 35.4 | 0.00 | 0.00 | 0.00 | 10 | 1005.8 |
| 20260503183329 | 16 | 325 | 17.7 | 35.4 | 0.00 | 0.00 | 0.00 | 11 | 1005.7 |
| 20260503183042 | 16 | 188 | 17.7 | 32.2 | 0.00 | 0.00 | 0.00 | 8 | 1005.6 |
| 20260503182310 | 17 | 287 | 14.5 | 30.6 | 0.00 | 0.00 | 0.00 | 10 | 1005.7 |
| 20260503181809 | 17 | 292 | 14.5 | 30.6 | 0.00 | 0.00 | 0.00 | 10 | 1005.7 |
| 20260503181541 | 16 | 259 | 14.5 | 30.6 | 0.00 | 0.00 | 0.00 | 12 | 1005.9 |
| 20260503180752 | 16 | 300 | 16.1 | 32.2 | 0.00 | 0.00 | 0.00 | 11 | 1006.0 |
| 20260503180251 | 16 | 256 | 14.5 | 32.2 | 0.00 | 0.00 | 0.00 | 11 | 1006.0 |
| 20260503175729 | 17 | 268 | 12.9 | 30.6 | 0.00 | 0.00 | 0.00 | 10 | 1006.0 |
| 20260503175457 | 16 | 244 | 14.5 | 30.6 | 0.00 | 0.00 | 0.00 | 11 | 1006.0 |
| 20260503175048 | 17 | 309 | 11.3 | 25.7 | 0.00 | 0.00 | 0.00 | 11 | 1006.1 |
| 20260503174940 | 17 | 101 | 14.5 | 37.0 | 0.00 | 0.00 | 0.00 | 9 | 1006.1 |
| 20260503173647 | 16 | 264 | 14.5 | 37.0 | 0.00 | 0.00 | 0.00 | 9 | 1006.0 |
| 20260503173122 | 16 | 138 | 11.3 | 32.2 | 0.00 | 0.00 | 0.00 | 12 | 1006.0 |
| 20260503172557 | 16 | 273 | 11.3 | 32.2 | 0.00 | 0.00 | 0.00 | 11 | 1005.9 |
| 20260503172050 | 16 | 30 | 14.5 | 29.0 | 0.00 | 0.00 | 0.00 | 12 | 1006.1 |
| 20260503171524 | 16 | 284 | 14.5 | 29.0 | 0.00 | 0.00 | 0.00 | 11 | 1006.0 |
| 20260503171016 | 16 | 296 | 11.3 | 29.0 | 0.00 | 0.00 | 0.00 | 14 | 1006.2 |
| 20260503170451 | 16 | 258 | 11.3 | 38.6 | 0.00 | 0.00 | 0.00 | 16 | 1006.0 |
| 20260503150459 | 15 | 242 | 14.5 | 25.7 | 0.00 | 0.00 | 0.00 | 38 | 1005.8 |
| 20260503140222 | 15 | 225 | 8.0 | 17.7 | 0.00 | 0.00 | 0.00 | 42 | 1005.9 |
| 20260503131020 | 7 | 162 | 3.2 | 9.7 | 0.00 | 0.00 | 0.00 | 50 | 1006.1 |
| 20260503130953 | 7 | 154 | 3.2 | 9.7 | 0.00 | 0.00 | 0.00 | 50 | 1006.2 |
| 20260503120203 | 5 | 209 | 0.0 | 0.0 | 0.00 | 0.00 | 0.00 | 59 | 1006.2 |
| 20260503110459 | 3 | 223 | 0.0 | 3.2 | 0.00 | 0.00 | 0.00 | 67 | 1005.7 |
| 20260503100212 | 5 | 223 | 3.2 | 4.8 | 0.00 | 0.00 | 0.00 | 66 | 1005.9 |
| 20260503090445 | 5 | 220 | 1.6 | 4.8 | 0.00 | 0.00 | 0.00 | 64 | 1006.0 |
| 20260503090213 | 5 | 220 | 3.2 | 4.8 | 0.00 | 0.00 | 0.00 | 63 | 1006.0 |
| 20260503081454 | 7 | 217 | 1.6 | 4.8 | 0.00 | 0.00 | 0.00 | 58 | 1006.4 |
| 20260503080700 | 7 | 185 | 0.0 | 0.0 | 0.00 | 0.00 | 0.00 | 57 | 1006.4 |
| 20260503080156 | 7 | 185 | 1.6 | 3.2 | 0.00 | 0.00 | 0.00 | 57 | 1006.5 |
| 20260503072526 | 7 | 169 | 1.6 | 3.2 | 0.00 | 0.00 | 0.00 | 57 | 1006.8 |
| 20260503072022 | 7 | 169 | 0.0 | 3.2 | 0.00 | 0.00 | 0.00 | 54 | 1006.9 |
| 20260503071740 | 7 | 169 | 0.0 | 3.2 | 0.00 | 0.00 | 0.00 | 52 | 1007.1 |
| 20260503070942 | 6 | 170 | 0.0 | 0.0 | 0.00 | 0.00 | 0.00 | 51 | 1007.1 |
| 20260503070916 | 6 | 170 | 0.0 | 3.2 | 0.00 | 0.00 | 0.00 | 53 | 1007.1 |
| 20260503070143 | 6 | 170 | 0.0 | 3.2 | 0.00 | 0.00 | 0.00 | 53 | 1007.2 |
| 20260503060110 | 5 | 171 | 0.0 | 0.0 | 0.00 | 0.00 | 0.00 | 62 | 1008.2 |
| 20260503055018 | 5 | 171 | 0.0 | 1.6 | 0.00 | 0.00 | 0.00 | 61 | 1008.3 |
| 20260503054501 | 5 | 171 | 0.0 | 1.6 | 0.00 | 0.00 | 0.00 | 61 | 1008.3 |
| 20260503054003 | 5 | 171 | 0.0 | 0.0 | 0.00 | 0.00 | 0.00 | 62 | 1008.3 |
| 20260503053733 | 5 | 171 | 0.0 | 1.6 | 0.00 | 0.00 | 0.00 | 62 | 1008.4 |
| 20260503053001 | 5 | 171 | 0.0 | 1.6 | 0.00 | 0.00 | 0.00 | 62 | 1008.4 |
| 20260503052732 | 5 | 171 | 0.0 | 0.0 | 0.00 | 0.00 | 0.00 | 62 | 1008.5 |
| 20260503052000 | 5 | 171 | 0.0 | 3.2 | 0.00 | 0.00 | 0.00 | 62 | 1008.6 |
| 20260503051434 | 5 | 171 | 1.6 | 3.2 | 0.00 | 0.00 | 0.00 | 62 | 1008.6 |
| 20260503050930 | 5 | 171 | 1.6 | 3.2 | 0.00 | 0.00 | 0.00 | 62 | 1008.7 |
| 20260503050428 | 5 | 171 | 1.6 | 3.2 | 0.00 | 0.00 | 0.00 | 63 | 1008.8 |
| 20260503045924 | 5 | 171 | 0.0 | 3.2 | 0.00 | 0.00 | 0.00 | 64 | 1008.8 |
| 20260503045422 | 5 | 171 | 0.0 | 1.6 | 0.00 | 0.00 | 0.00 | 64 | 1008.9 |
| 20260503044856 | 5 | 171 | 0.0 | 3.2 | 0.00 | 0.00 | 0.00 | 64 | 1008.8 |
| 20260503044331 | 5 | 171 | 0.0 | 3.2 | 0.00 | 0.00 | 0.00 | 63 | 1008.8 |
| 20260503044034 | 5 | 171 | 1.6 | 4.8 | 0.00 | 0.00 | 0.00 | 62 | 1009.0 |
| 20260503043258 | 5 | 171 | 1.6 | 4.8 | 0.00 | 0.00 | 0.00 | 62 | 1008.9 |
| 20260503042755 | 5 | 171 | 1.6 | 6.4 | 0.00 | 0.00 | 0.00 | 62 | 1008.9 |
| 20260503042230 | 5 | 171 | 1.6 | 6.4 | 0.00 | 0.00 | 0.00 | 60 | 1008.8 |
| 20260503041702 | 5 | 186 | 1.6 | 4.8 | 0.00 | 0.00 | 0.00 | 61 | 1008.8 |
| 20260503041200 | 5 | 186 | 1.6 | 1.6 | 0.00 | 0.00 | 0.00 | 60 | 1009.1 |
| 20260503040906 | 5 | 186 | 1.6 | 4.8 | 0.00 | 0.00 | 0.00 | 59 | 1009.2 |
| 20260503040405 | 5 | 186 | 1.6 | 4.8 | 0.00 | 0.00 | 0.00 | 59 | 1009.2 |
| 20260503035604 | 5 | 187 | 1.6 | 4.8 | 0.00 | 0.00 | 0.00 | 57 | 1009.3 |
| 20260503035600 | 5 | 187 | 1.6 | 6.4 | 0.00 | 0.00 | 0.00 | 59 | 1009.3 |
| 20260503035054 | 5 | 188 | 1.6 | 6.4 | 0.00 | 0.00 | 0.00 | 58 | 1009.3 |
| 20260503034048 | 5 | 187 | 1.6 | 4.8 | 0.00 | 0.00 | 0.00 | 57 | 1009.5 |
| 20260503033545 | 5 | 187 | 3.2 | 6.4 | 0.00 | 0.00 | 0.00 | 57 | 1009.5 |
| 20260503033020 | 5 | 188 | 3.2 | 6.4 | 0.00 | 0.00 | 0.00 | 54 | 1009.5 |
| 20260503032452 | 6 | 210 | 1.6 | 6.4 | 0.00 | 0.00 | 0.00 | 53 | 1009.4 |
| 20260503031950 | 7 | 177 | 3.2 | 8.0 | 0.00 | 0.00 | 0.00 | 48 | 1009.4 |
| 20260503031424 | 10 | 177 | 4.8 | 12.9 | 0.00 | 0.00 | 0.00 | 41 | 1009.5 |
| 20260503030856 | 14 | 209 | 3.2 | 12.9 | 0.00 | 0.00 | 0.00 | 39 | 1009.6 |
| 20260503030353 | 14 | 29 | 3.2 | 14.5 | 0.00 | 0.00 | 0.00 | 39 | 1009.5 |
| 20260503025827 | 14 | 255 | 4.8 | 14.5 | 0.00 | 0.00 | 0.00 | 39 | 1009.5 |
| 20260503025323 | 15 | 355 | 6.4 | 19.3 | 0.00 | 0.00 | 0.00 | 38 | 1009.6 |
| 20260503024758 | 15 | 267 | 8.0 | 19.3 | 0.00 | 0.00 | 0.00 | 37 | 1009.6 |
| 20260503024231 | 15 | 349 | 8.0 | 19.3 | 0.00 | 0.00 | 0.00 | 36 | 1009.5 |
| 20260503023716 | 15 | 290 | 8.0 | 20.9 | 0.00 | 0.00 | 0.00 | 35 | 1009.6 |
| 20260503023215 | 15 | 263 | 8.0 | 20.9 | 0.00 | 0.00 | 0.00 | 35 | 1009.6 |
| 20260503022646 | 15 | 240 | 6.4 | 17.7 | 0.00 | 0.00 | 0.00 | 36 | 1009.5 |
| 20260503022144 | 13 | 0 | 6.4 | 16.1 | 0.00 | 0.00 | 0.00 | 37 | 1009.5 |
| 20260503021641 | 12 | 286 | 4.8 | 19.3 | 0.00 | 0.00 | 0.00 | 42 | 1009.5 |
| 20260503021137 | 10 | 286 | 3.2 | 19.3 | 0.00 | 0.00 | 0.00 | 44 | 1009.5 |
| 20260503020634 | 8 | 248 | 1.6 | 4.8 | 0.00 | 0.00 | 0.00 | 45 | 1009.4 |
| 20260503020132 | 9 | 136 | 3.2 | 4.8 | 0.00 | 0.00 | 0.00 | 43 | 1009.4 |
| 20260503015612 | 9 | 123 | 3.2 | 8.0 | 0.00 | 0.00 | 0.00 | 41 | 1009.4 |
| 20260503015110 | 9 | 82 | 1.6 | 8.0 | 0.00 | 0.00 | 0.00 | 40 | 1009.3 |
| 20260503014610 | 9 | 132 | 1.6 | 6.4 | 0.00 | 0.00 | 0.00 | 41 | 1009.4 |
| 20260503014111 | 9 | 136 | 1.6 | 4.8 | 0.00 | 0.00 | 0.00 | 40 | 1009.5 |
| 20260503013558 | 9 | 136 | 1.6 | 4.8 | 0.00 | 0.00 | 0.00 | 40 | 1009.3 |
| 20260503013052 | 9 | 109 | 3.2 | 9.7 | 0.00 | 0.00 | 0.00 | 40 | 1009.3 |
| 20260503012550 | 10 | 154 | 3.2 | 9.7 | 0.00 | 0.00 | 0.00 | 39 | 1009.1 |
| 20260503012023 | 10 | 163 | 4.8 | 8.0 | 0.00 | 0.00 | 0.00 | 41 | 1009.1 |
| 20260503011751 | 10 | 163 | 3.2 | 8.0 | 0.00 | 0.00 | 0.00 | 40 | 1009.1 |
| 20260503010952 | 10 | 137 | 1.6 | 3.2 | 0.00 | 0.00 | 0.00 | 40 | 1009.0 |
| 20260503010450 | 10 | 137 | 1.6 | 3.2 | 0.00 | 0.00 | 0.00 | 39 | 1009.1 |
| 20260503005945 | 10 | 137 | 1.6 | 4.8 | 0.00 | 0.00 | 0.00 | 39 | 1009.0 |
| 20260503005442 | 11 | 138 | 1.6 | 4.8 | 0.00 | 0.00 | 0.00 | 38 | 1009.0 |
| 20260503004918 | 11 | 138 | 1.6 | 6.4 | 0.00 | 0.00 | 0.00 | 38 | 1009.0 |
| 20260503004914 | 11 | 137 | 1.6 | 6.4 | 0.00 | 0.00 | 0.00 | 39 | 1009.0 |
| 20260503003857 | 11 | 125 | 1.6 | 4.8 | 0.00 | 0.00 | 0.00 | 37 | 1009.0 |
| 20260503003359 | 11 | 125 | 1.6 | 6.4 | 0.00 | 0.00 | 0.00 | 36 | 1009.1 |
| 20260503002831 | 12 | 124 | 3.2 | 6.4 | 0.00 | 0.00 | 0.00 | 34 | 1009.2 |
| 20260503002332 | 12 | 92 | 3.2 | 6.4 | 0.00 | 0.00 | 0.00 | 32 | 1009.2 |
| 20260503002309 | 12 | 86 | 3.2 | 8.0 | 0.00 | 0.00 | 0.00 | 32 | 1009.1 |
| 20260503001245 | 12 | 74 | 3.2 | 8.0 | 0.00 | 0.00 | 0.00 | 33 | 1009.2 |
| 20260503001017 | 12 | 95 | 1.6 | 4.8 | 0.00 | 0.00 | 0.00 | 32 | 1009.3 |
| 20260503000222 | 13 | 95 | 1.6 | 4.8 | 0.00 | 0.00 | 0.00 | 32 | 1009.3 |
| 20260502235726 | 13 | 95 | 3.2 | 11.3 | 0.00 | 0.00 | 0.00 | 31 | 1009.4 |
| 20260502235159 | 14 | 96 | 4.8 | 11.3 | 0.00 | 0.00 | 0.00 | 28 | 1009.4 |
| 20260502234656 | 15 | 103 | 6.4 | 14.5 | 0.00 | 0.00 | 0.00 | 27 | 1009.3 |
| 20260502234132 | 16 | 165 | 6.4 | 16.1 | 0.00 | 0.00 | 0.00 | 25 | 1009.4 |
| 20260502233622 | 16 | 181 | 8.0 | 16.1 | 0.00 | 0.00 | 0.00 | 25 | 1009.4 |
| 20260502233126 | 16 | 200 | 8.0 | 12.9 | 0.00 | 0.00 | 0.00 | 25 | 1009.5 |
| 20260502232600 | 16 | 198 | 8.0 | 17.7 | 0.00 | 0.00 | 0.00 | 25 | 1009.5 |
| 20260502232100 | 16 | 200 | 9.7 | 19.3 | 0.00 | 0.00 | 0.00 | 25 | 1009.6 |
| 20260502231559 | 16 | 230 | 9.7 | 19.3 | 0.00 | 0.00 | 0.00 | 24 | 1009.7 |
| 20260502231101 | 17 | 216 | 11.3 | 20.9 | 0.00 | 0.00 | 0.00 | 23 | 1009.7 |
| 20260502230829 | 17 | 200 | 11.3 | 20.9 | 0.00 | 0.00 | 0.00 | 23 | 1009.6 |
| 20260502230313 | 17 | 205 | 12.9 | 24.1 | 0.00 | 0.00 | 0.00 | 23 | 1009.8 |
| 20260502225521 | 17 | 195 | 11.3 | 27.4 | 0.00 | 0.00 | 0.00 | 23 | 1009.6 |
| 20260502225252 | 17 | 227 | 9.7 | 27.4 | 0.00 | 0.00 | 0.00 | 22 | 1009.8 |
| 20260502224522 | 17 | 0 | 9.7 | 22.5 | 0.00 | 0.00 | 0.00 | 22 | 1009.8 |
| 20260502224003 | 17 | 252 | 9.7 | 27.4 | 0.00 | 0.00 | 0.00 | 21 | 1010.0 |
| 20260502223503 | 17 | 220 | 12.9 | 27.4 | 0.00 | 0.00 | 0.00 | 22 | 1009.9 |
| 20260502223001 | 17 | 230 | 16.1 | 29.0 | 0.00 | 0.00 | 0.00 | 21 | 1010.1 |
| 20260502222452 | 17 | 246 | 14.5 | 29.0 | 0.00 | 0.00 | 0.00 | 22 | 1010.1 |
| 20260502222224 | 17 | 227 | 11.3 | 29.0 | 0.00 | 0.00 | 0.00 | 21 | 1010.3 |
| 20260502221450 | 16 | 199 | 9.7 | 29.0 | 0.00 | 0.00 | 0.00 | 24 | 1010.2 |
| 20260502220947 | 15 | 194 | 8.0 | 19.3 | 0.00 | 0.00 | 0.00 | 24 | 1010.2 |
| 20260502220447 | 15 | 165 | 4.8 | 19.3 | 0.00 | 0.00 | 0.00 | 25 | 1010.3 |
| 20260502215922 | 15 | 174 | 3.2 | 6.4 | 0.00 | 0.00 | 0.00 | 26 | 1010.4 |
| 20260502215358 | 14 | 78 | 3.2 | 4.8 | 0.00 | 0.00 | 0.00 | 26 | 1010.4 |
| 20260502214859 | 14 | 71 | 4.8 | 11.3 | 0.00 | 0.00 | 0.00 | 25 | 1010.5 |
| 20260502214335 | 14 | 125 | 4.8 | 11.3 | 0.00 | 0.00 | 0.00 | 25 | 1010.6 |
| 20260502213835 | 14 | 128 | 4.8 | 11.3 | 0.00 | 0.00 | 0.00 | 24 | 1010.7 |